Weather History for KEUG - November, 2012

Change the Weather History Date:

Saturday, November 24, 2012

  Actual Average Record
Temperature  
Mean Temperature 46 °F 43 °F  
Max Temperature 52 °F 50 °F 68 °F (1949)
Min Temperature 40 °F 36 °F 15 °F (1993)
Degree Days  
Heating Degree Days 19 22  
Month to date heating degree days 372 466  
Since 1 July heating degree days 798 1036  
Cooling Degree Days 0 0  
Month to date cooling degree days 0 0  
Year to date cooling degree days 230 239  
Moisture  
Dew Point 49 °F    
Average Humidity 95    
Maximum Humidity 100    
Minimum Humidity 89    
Precipitation  
Precipitation 0.66 in 0.28 in 4.18 in (1960)
Month to date precipitation 6.70 5.91  
Year to date precipitation 41.83 36.46  
Snow  
Snow 0.00 in - - ()
Month to date snowfall 0.0  
Since 1 July snowfall 0.0  
Since 1 September snowfall 0.0  
Snow Depth 0.00 in    
Sea Level Pressure  
Sea Level Pressure 30.22 in    
Wind  
Wind Speed 5 mph (North)    
Max Wind Speed 10 mph    
Max Gust Speed 12 mph    
Visibility 7 miles    
Events Rain    
T = Trace of Precipitation, MM = Missing Value Source: NWS Daily Summary

Daily Weather History Graph

Daily Weather History Graph

Search for Another Location

Airport or City:

Trip Planner

Search our weather history database for the weather conditions in past years. The results will help you decide how hot, cold, wet, or windy it might be!

Date:

Astronomy

Nov. 24, 2012 Rise Set
Actual Time 7:20 AM PST 4:38 PM PST
Civil Twilight 6:48 AM PST 5:10 PM PST
Nautical Twilight 6:12 AM PST 5:46 PM PST
Astronomical Twilight 5:38 AM PST 6:20 PM PST
Moon 2:31 PM PST (11/24) 3:36 AM PST (11/24)
Length of Visible Light 10h 22m
Length of Day
9h 18m
Waxing Gibbous, 88% of the Moon is Illuminated
Nov 24
Waxing Gibbous
Nov 28
Full
Dec 6
Last Quarter
Dec 13
New
Dec 19
First Quarter

Hourly Weather History & Observations

Time (PST) Temp. Windchill Dew Point Humidity Pressure Visibility Wind Dir Wind Speed Gust Speed Precip Events Conditions
12:54 AM 51.1 °F - 50.0 °F 96% 30.20 in 7.0 mi SSE 6.9 mph - 0.06 in Rain Rain
1:54 AM 51.1 °F - 50.0 °F 96% 30.21 in 6.0 mi SE 8.1 mph - 0.07 in Rain Rain
2:54 AM 51.1 °F - 50.0 °F 96% 30.21 in 10.0 mi SSE 8.1 mph - 0.04 in Rain Light Rain
3:54 AM 51.8 °F - 51.8 °F 100% 30.21 in 10.0 mi SE 5.8 mph - N/A Rain Light Rain
4:36 AM 51.8 °F - 51.8 °F 100% 30.21 in 10.0 mi SE 3.5 mph - 0.01 in   Overcast
4:54 AM 51.1 °F - 51.1 °F 100% 30.22 in 4.0 mi Calm Calm - 0.01 in   Overcast
5:24 AM 51.8 °F - 51.8 °F 100% 30.22 in 2.5 mi Calm Calm - N/A   Overcast
5:35 AM 51.8 °F - 51.8 °F 100% 30.22 in 2.0 mi SSE 3.5 mph - 0.01 in   Overcast
5:40 AM 51.8 °F - 51.8 °F 100% 30.22 in 3.0 mi Calm Calm - 0.01 in   Overcast
5:51 AM 51.8 °F - 51.8 °F 100% 30.22 in 0.5 mi WNW 3.5 mph - 0.01 in   Light Drizzle
5:54 AM 51.1 °F - 51.1 °F 100% 30.23 in 1.0 mi NNW 4.6 mph - 0.01 in   Light Drizzle
5:57 AM 51.8 °F - 51.8 °F 100% 30.22 in 3.0 mi NNW 4.6 mph - 0.00 in   Light Drizzle
6:04 AM 51.8 °F - 51.8 °F 100% 30.22 in 2.0 mi NNW 4.6 mph - 0.00 in Rain Light Rain
6:28 AM 51.8 °F - 51.8 °F 100% 30.23 in 3.0 mi North 3.5 mph - 0.01 in Rain Light Rain
6:50 AM 51.8 °F - 51.8 °F 100% 30.23 in 5.0 mi NE 5.8 mph - 0.02 in Rain Light Rain
6:54 AM 51.1 °F - 50.0 °F 96% 30.23 in 5.0 mi NE 5.8 mph - 0.02 in Rain Light Rain
7:33 AM 50.0 °F - 48.2 °F 94% 30.23 in 7.0 mi NE 6.9 mph - 0.02 in Rain Light Rain
7:54 AM 50.0 °F - 48.9 °F 96% 30.23 in 6.0 mi NE 6.9 mph - 0.05 in Rain Rain
8:00 AM 50.0 °F - 48.2 °F 94% 30.23 in 9.0 mi NNE 5.8 mph - 0.00 in Rain Light Rain
8:54 AM 50.0 °F - 48.0 °F 93% 30.24 in 7.0 mi NNE 5.8 mph - 0.04 in Rain Light Rain
9:01 AM 50.0 °F - 48.2 °F 94% 30.24 in 8.0 mi North 6.9 mph - 0.00 in Rain Light Rain
9:27 AM 50.0 °F - 48.2 °F 94% 30.24 in 10.0 mi North 6.9 mph - 0.01 in Rain Light Rain
9:54 AM 50.0 °F - 48.9 °F 96% 30.24 in 9.0 mi NNW 5.8 mph - 0.02 in Rain Light Rain
10:08 AM 50.0 °F - 48.2 °F 94% 30.24 in 5.0 mi NNW 6.9 mph - 0.01 in Rain Light Rain
10:41 AM 50.0 °F - 48.2 °F 94% 30.24 in 5.0 mi North 9.2 mph - 0.05 in Rain Rain
10:51 AM 50.0 °F - 50.0 °F 100% 30.24 in 6.0 mi North 6.9 mph - 0.06 in Rain Light Rain
10:54 AM 50.0 °F - 50.0 °F 100% 30.25 in 7.0 mi North 5.8 mph - 0.06 in Rain Light Rain
11:28 AM 51.8 °F - 48.2 °F 88% 30.24 in 10.0 mi North 3.5 mph - 0.01 in Rain Light Rain
11:35 AM 51.8 °F - 50.0 °F 94% 30.23 in 9.0 mi North 4.6 mph - 0.02 in Rain Light Rain
11:54 AM 51.1 °F - 48.9 °F 92% 30.23 in 10.0 mi North 5.8 mph - 0.03 in Rain Light Rain
12:14 PM 51.8 °F - 48.2 °F 88% 30.22 in 9.0 mi North 6.9 mph - 0.00 in Rain Light Rain
12:54 PM 52.0 °F - 48.9 °F 89% 30.22 in 10.0 mi NNE 6.9 mph - 0.01 in Rain Light Rain
1:49 PM 51.8 °F - 48.2 °F 88% 30.21 in 10.0 mi NNE 5.8 mph - 0.01 in Rain Light Rain
1:54 PM 51.1 °F - 48.9 °F 92% 30.21 in 10.0 mi NNE 5.8 mph - 0.01 in Rain Light Rain
2:54 PM 50.0 °F - 48.0 °F 93% 30.21 in 7.0 mi NE 5.8 mph - 0.03 in Rain Light Rain
3:23 PM 50.0 °F - 48.2 °F 94% 30.21 in 7.0 mi NE 3.5 mph - 0.02 in Rain Rain
3:54 PM 50.0 °F - 48.9 °F 96% 30.22 in 6.0 mi NNE 3.5 mph - 0.06 in Rain Rain
4:30 PM 50.0 °F - 48.2 °F 94% 30.21 in 6.0 mi North 4.6 mph - 0.03 in Rain Light Rain
4:54 PM 48.9 °F - 48.0 °F 97% 30.22 in 6.0 mi North 3.5 mph - 0.06 in Rain Rain
5:18 PM 48.2 °F - 46.4 °F 93% 30.21 in 8.0 mi North 3.5 mph - 0.02 in Rain Rain
5:54 PM 48.9 °F - 48.0 °F 97% 30.21 in 9.0 mi Calm Calm - 0.05 in Rain Light Rain
6:18 PM 48.2 °F - 48.2 °F 100% 30.21 in 8.0 mi Calm Calm - 0.01 in Rain Light Rain
6:54 PM 48.0 °F - 46.9 °F 96% 30.22 in 10.0 mi NNW 5.8 mph - 0.01 in   Overcast
7:54 PM 48.0 °F - 46.9 °F 96% 30.21 in 10.0 mi NW 3.5 mph - N/A   Overcast
8:23 PM 48.2 °F - 46.4 °F 93% 30.21 in 10.0 mi NNW 3.5 mph - N/A   Overcast
8:54 PM 46.9 °F - 46.0 °F 97% 30.22 in 10.0 mi Calm Calm - N/A   Overcast
9:54 PM 46.0 °F 42.5 °F 45.0 °F 96% 30.22 in 10.0 mi North 6.9 mph - N/A   Mostly Cloudy
10:54 PM 44.1 °F 40.1 °F 43.0 °F 96% 30.23 in 10.0 mi North 6.9 mph - N/A   Mostly Cloudy
11:35 PM 41.0 °F 36.4 °F 41.0 °F 100% 30.23 in 10.0 mi North 6.9 mph - N/A   Scattered Clouds
11:54 PM 39.9 °F 35.1 °F 39.9 °F 100% 30.24 in 10.0 mi North 6.9 mph - N/A   Partly Cloudy